Home > Weather > Bourges > Past weeks

Flag for France Past Weather in Bourges, Centre-Val de Loire, France — Yesterday and Last 2 Weeks

Now
71 °F

Partly sunny.


Feels Like: 76 °F
Forecast: 58 / 72 °F
Wind: 12 mph from Southwest

Location: Bourges

Current Time: Jun 28, 2016 at 8:48:02 PM

Latest Report: Jun 28, 2016 at 8:00 PM


Visibility: 13 mi

Pressure: 30.00 "Hg

Humidity: 62%

Dew Point: 58 °F

Location of BourgesLocation

Past Weather in Bourges — Graph

°F

Bourges Temperature Yesterday

Maximum temperature yesterday: 69 °F (at 6:00 PM)
Minimum temperature yesterday: 52 °F (at 4:00 AM)
Average temperature yesterday: 62 °F

High & Low Weather Summary for the Past Weeks

 TemperatureHumidityPressure
High89 °F (Jun 23, 6:00 PM)97% (Jun 16, 3:00 AM)30.34 "Hg (Jun 16, 3:00 AM)
Low50 °F (Jun 20, 5:00 AM)37% (Jun 23, 2:00 PM)29.56 "Hg (Jun 15, 5:00 AM)
Average63 °F77%30.02 "Hg
* Reported Jun 13 7:00 PM — Jun 28 7:00 PM, Bourges, Weather by CustomWeather, © 2016

Note: Actual official high and low records may vary slightly from our data, if they occured in-between our weather recording intervals... More about our weather records

Advertising

Bourges Weather History for the Previous 24 Hours

Scroll right to see more
 ConditionsComfort  
Time TempWeatherWind HumidityBarometerVisibility
7:00 PM
Tue, Jun 28
71 °FPartly sunny.10 mph65%30.00 "Hg12 mi
6:00 PM69 °FOvercast.9 mph72%30.02 "Hg12 mi
5:00 PM68 °FOvercast.13 mph71%30.04 "Hg22 mi
4:00 PM72 °FOvercast.10 mph57%30.03 "Hg12 mi
3:00 PM71 °FPartly sunny.8 mph59%30.05 "Hg22 mi
2:00 PM69 °FPartly sunny.7 mph63%30.07 "Hg22 mi
1:00 PM68 °FPartly sunny.9 mph69%30.09 "Hg19 mi
12:00 PM64 °FOvercast.10 mph81%30.11 "Hg11 mi
11:00 AM64 °FPartly sunny.7 mph87%30.12 "Hg11 mi
10:00 AM62 °FLight rain. Low clouds.8 mph88%30.13 "Hg11 mi
9:00 AM62 °FLow clouds.5 mph88%30.14 "Hg11 mi
8:00 AM61 °FLow clouds.6 mph90%30.14 "Hg9 mi
7:00 AM60 °FLow clouds.6 mph93%30.14 "Hg9 mi
6:00 AM59 °FOvercast.3 mph93%30.14 "Hg11 mi
5:00 AM60 °FOvercast.5 mph92%30.15 "Hg12 mi
4:00 AM60 °FOvercast.5 mph91%30.16 "Hg12 mi
3:00 AM61 °FOvercast.6 mph91%30.17 "Hg12 mi
2:00 AM61 °FOvercast.5 mph94%30.17 "Hg12 mi
12:00 AM63 °FOvercast.5 mph88%30.19 "Hg12 mi
11:00 PM
Mon, Jun 27
62 °FOvercast.3 mph89%30.19 "Hg12 mi
10:00 PM64 °FOvercast.5 mph83%30.19 "Hg12 mi
9:00 PM64 °FOvercast.3 mph81%30.18 "Hg12 mi
8:00 PM66 °FOvercast.8 mph75%30.17 "Hg11 mi
Weather by CustomWeather, © 2016

See weather overviewHow to use our weather pages